Chippewa, MI

4:34 PM EDT on May 22, 2017 (GMT -0400)
Chippewa County International

Weather History for KCIU - February, 2013

Change the Weather History Date:

Friday, February 22, 2013

  Actual Average Record
Temperature  
Mean Temperature 17 °F -  
Max Temperature 26 °F 34 °F 48 °F (2017)
Min Temperature 8 °F 12 °F -16 °F (2015)
Degree Days  
Heating Degree Days 48    
Moisture  
Dew Point 17 °F    
Average Humidity 95    
Maximum Humidity 100    
Minimum Humidity 86    
Precipitation  
Precipitation 0.00 in - - ()
Sea Level Pressure  
Sea Level Pressure 30.07 in    
Wind  
Wind Speed 13 mph (East)    
Max Wind Speed 24 mph    
Max Gust Speed 31 mph    
Visibility 5 miles    
Events      
Averages and records for this station are not official NWS values.
T = Trace of Precipitation, MM = Missing Value Source: NWS Daily Summary

Daily Weather History Graph

Daily Weather History Graph

Search for Another Location

Airport or City:

Trip Planner

Search our weather history database for the weather conditions in past years. The results will help you decide how hot, cold, wet, or windy it might be!

Date:

Astronomy

Feb. 22, 2013 Rise Set
Actual Time 7:28 AM EST 6:14 PM EST
Civil Twilight 6:58 AM EST 6:44 PM EST
Nautical Twilight 6:23 AM EST 7:19 PM EST
Astronomical Twilight 5:48 AM EST 7:54 PM EST
Moon 3:18 PM EST 5:20 AM EST
Length of Visible Light 11h 46m
Length of Day
10h 45m
Waxing Gibbous, 90% of the Moon is Illuminated
Feb 22
Waxing Gibbous
Feb 25
Full
Mar 4
Last Quarter
Mar 11
New
Mar 19
First Quarter

Hourly Weather History & Observations

Time (EST) Temp. Windchill Dew Point Humidity Pressure Visibility Wind Dir Wind Speed Gust Speed Precip Events Conditions
12:15 AM 8.6 °F -4.7 °F 6.8 °F 92% 30.33 in 10.0 mi ENE 9.2 mph - N/A   Clear
12:35 AM 12.2 °F -0.2 °F 12.2 °F 100% 30.31 in 10.0 mi East 9.2 mph - N/A   Clear
12:55 AM 14.0 °F 0.5 °F 12.2 °F 93% 30.31 in 10.0 mi East 11.5 mph - N/A   Clear
1:15 AM 14.0 °F 1.2 °F 12.2 °F 93% 30.31 in 10.0 mi East 10.4 mph - N/A   Clear
1:55 AM 14.0 °F 2.0 °F 12.2 °F 93% 30.30 in 10.0 mi East 9.2 mph - N/A   Clear
2:15 AM 12.2 °F 0.7 °F 12.2 °F 100% 30.30 in 10.0 mi East 8.1 mph - N/A   Clear
2:35 AM 12.2 °F 1.7 °F 12.2 °F 100% 30.31 in 10.0 mi ESE 6.9 mph - N/A   Clear
2:55 AM 12.2 °F 0.7 °F 10.4 °F 92% 30.29 in 10.0 mi East 8.1 mph - N/A   Clear
3:15 AM 12.2 °F -1.0 °F 10.4 °F 92% 30.29 in 10.0 mi East 10.4 mph - N/A   Clear
3:35 AM 12.2 °F -1.0 °F 10.4 °F 92% 30.28 in 10.0 mi East 10.4 mph - N/A   Scattered Clouds
3:55 AM 12.2 °F -3.7 °F 12.2 °F 100% 30.28 in 10.0 mi East 15.0 mph - N/A   Overcast
4:15 AM 12.2 °F -3.1 °F 12.2 °F 100% 30.27 in 10.0 mi East 13.8 mph - N/A   Overcast
4:35 AM 12.2 °F -5.3 °F 10.4 °F 92% 30.25 in 10.0 mi East 18.4 mph 23.0 mph N/A   Overcast
4:55 AM 12.2 °F -3.7 °F 10.4 °F 92% 30.25 in 10.0 mi East 15.0 mph 21.9 mph N/A   Overcast
5:15 AM 12.2 °F -3.7 °F 10.4 °F 92% 30.25 in 9.0 mi East 15.0 mph - N/A   Overcast
5:35 AM 12.2 °F -3.7 °F 10.4 °F 92% 30.24 in 5.0 mi East 15.0 mph - N/A   Overcast
5:55 AM 12.2 °F -3.1 °F 10.4 °F 92% 30.23 in 5.0 mi East 13.8 mph 20.7 mph N/A   Overcast
6:15 AM 12.2 °F -3.1 °F 10.4 °F 92% 30.23 in 5.0 mi East 13.8 mph 18.4 mph N/A   Overcast
6:35 AM 10.4 °F -5.4 °F 10.4 °F 100% 30.22 in 5.0 mi East 13.8 mph 19.6 mph N/A   Overcast
6:55 AM 10.4 °F -4.8 °F 10.4 °F 100% 30.21 in 5.0 mi East 12.7 mph - N/A   Overcast
7:15 AM 10.4 °F -6.0 °F 10.4 °F 100% 30.22 in 5.0 mi East 15.0 mph - N/A   Overcast
7:35 AM 10.4 °F -4.1 °F 8.6 °F 92% 30.22 in 3.0 mi East 11.5 mph - N/A   Overcast
7:55 AM 10.4 °F -5.4 °F 8.6 °F 92% 30.20 in 3.0 mi East 13.8 mph 20.7 mph N/A   Overcast
8:15 AM 10.4 °F -3.3 °F 10.4 °F 100% 30.20 in 3.0 mi East 10.4 mph - N/A   Overcast
8:35 AM 10.4 °F -4.8 °F 10.4 °F 100% 30.19 in 2.5 mi East 12.7 mph - N/A   Overcast
8:55 AM 12.2 °F -1.8 °F 10.4 °F 92% 30.18 in 2.0 mi East 11.5 mph 17.3 mph N/A   Overcast
9:15 AM 12.2 °F -4.3 °F 10.4 °F 92% 30.16 in 2.0 mi East 16.1 mph - N/A   Overcast
9:35 AM 12.2 °F -3.1 °F 10.4 °F 92% 30.15 in 2.0 mi ENE 13.8 mph - N/A   Overcast
9:55 AM 12.2 °F -3.7 °F 10.4 °F 92% 30.13 in 1.8 mi ENE 15.0 mph 20.7 mph N/A   Overcast
10:15 AM 12.2 °F -3.1 °F 10.4 °F 92% 30.12 in 1.5 mi East 13.8 mph 18.4 mph N/A   Overcast
10:35 AM 12.2 °F -3.1 °F 10.4 °F 92% 30.12 in 1.5 mi East 13.8 mph - N/A   Overcast
10:55 AM 12.2 °F -3.7 °F 12.2 °F 100% 30.11 in 2.0 mi East 15.0 mph - N/A   Overcast
11:15 AM 14.0 °F -2.5 °F 12.2 °F 93% 30.09 in 2.5 mi ENE 17.3 mph - N/A   Overcast
11:35 AM 14.0 °F -3.0 °F 12.2 °F 93% 30.08 in 5.0 mi East 18.4 mph 23.0 mph N/A   Overcast
11:55 AM 15.8 °F 2.7 °F 12.2 °F 86% 30.07 in 10.0 mi East 11.5 mph - N/A   Overcast
12:15 PM 15.8 °F 2.1 °F 14.0 °F 93% 30.07 in 10.0 mi East 12.7 mph - N/A   Overcast
12:35 PM 17.6 °F 2.7 °F 15.8 °F 93% 30.05 in 10.0 mi East 16.1 mph - N/A   Overcast
12:55 PM 17.6 °F 3.2 °F 15.8 °F 93% 30.04 in 10.0 mi East 15.0 mph - N/A   Overcast
1:15 PM 17.6 °F 3.2 °F 15.8 °F 93% 30.03 in 5.0 mi East 15.0 mph - N/A   Overcast
1:35 PM 19.4 °F 5.5 °F 15.8 °F 86% 30.02 in 1.2 mi East 15.0 mph - N/A   Overcast
1:55 PM 19.4 °F 7.2 °F 17.6 °F 93% 30.01 in 1.2 mi East 11.5 mph - N/A   Overcast
2:15 PM 19.4 °F 5.0 °F 17.6 °F 93% 30.00 in 0.8 mi East 16.1 mph - N/A   Overcast
2:35 PM 19.4 °F 6.0 °F 17.6 °F 93% 29.99 in 1.0 mi East 13.8 mph 20.7 mph N/A   Overcast
2:55 PM 21.2 °F 7.3 °F 19.4 °F 93% 29.97 in 0.5 mi East 16.1 mph 23.0 mph N/A   Overcast
3:15 PM 21.2 °F 7.8 °F 19.4 °F 93% 29.96 in 1.0 mi East 15.0 mph - N/A   Overcast
3:35 PM 21.2 °F 7.8 °F 21.2 °F 100% 29.95 in 2.0 mi East 15.0 mph 19.6 mph N/A   Overcast
3:55 PM 23.0 °F 9.2 °F 21.2 °F 93% 29.94 in 0.8 mi East 17.3 mph 23.0 mph N/A   Overcast
4:15 PM 23.0 °F 10.1 °F 21.2 °F 93% 29.95 in 0.8 mi East 15.0 mph 23.0 mph N/A   Overcast
4:35 PM 23.0 °F 10.1 °F 21.2 °F 93% 29.94 in 1.0 mi East 15.0 mph 19.6 mph N/A   Overcast
4:55 PM 23.0 °F 8.3 °F 21.2 °F 93% 29.93 in 0.8 mi East 19.6 mph 26.5 mph N/A   Overcast
5:15 PM 24.8 °F 11.1 °F 23.0 °F 93% 29.92 in 1.0 mi East 18.4 mph 26.5 mph N/A   Overcast
5:35 PM 24.8 °F 9.3 °F 23.0 °F 93% 29.91 in 1.0 mi East 24.2 mph 31.1 mph N/A   Overcast
5:55 PM 24.8 °F 11.1 °F 23.0 °F 93% 29.91 in 1.0 mi East 18.4 mph 27.6 mph N/A   Overcast
6:15 PM 24.8 °F 10.3 °F 24.8 °F 100% 29.90 in 1.2 mi East 20.7 mph 28.8 mph N/A   Overcast
6:35 PM 24.8 °F 10.7 °F 24.8 °F 100% 29.90 in 2.5 mi East 19.6 mph 27.6 mph N/A   Overcast
6:55 PM 24.8 °F 11.1 °F 24.8 °F 100% 29.90 in 5.0 mi East 18.4 mph 27.6 mph N/A   Overcast
7:15 PM 24.8 °F 10.3 °F 24.8 °F 100% 29.89 in 5.0 mi East 20.7 mph 29.9 mph N/A   Overcast
7:35 PM 24.8 °F 10.7 °F 24.8 °F 100% 29.89 in 4.0 mi East 19.6 mph 27.6 mph N/A   Overcast
7:55 PM 24.8 °F 11.1 °F 23.0 °F 93% 29.87 in 2.5 mi East 18.4 mph 26.5 mph N/A   Overcast
8:15 PM 24.8 °F 10.7 °F 24.8 °F 100% 29.87 in 2.0 mi East 19.6 mph 28.8 mph N/A   Overcast
8:35 PM 26.6 °F 13.4 °F 24.8 °F 93% 29.87 in 2.5 mi East 18.4 mph 26.5 mph N/A   Overcast
8:55 PM 26.6 °F 13.4 °F 26.6 °F 100% 29.86 in 4.0 mi East 18.4 mph 24.2 mph N/A   Overcast
9:15 PM 26.6 °F 14.7 °F 26.6 °F 100% 29.86 in 5.0 mi East 15.0 mph 26.5 mph N/A   Overcast
9:35 PM 26.6 °F 13.8 °F 26.6 °F 100% 29.85 in 5.0 mi East 17.3 mph 27.6 mph N/A   Overcast
9:55 PM 26.6 °F 13.1 °F 26.6 °F 100% 29.83 in 5.0 mi East 19.6 mph 23.0 mph N/A   Overcast
10:15 PM 26.6 °F 14.7 °F 26.6 °F 100% 29.82 in 5.0 mi East 15.0 mph 21.9 mph N/A   Overcast
10:35 PM 26.6 °F 14.7 °F 26.6 °F 100% 29.82 in 3.0 mi East 15.0 mph 21.9 mph N/A   Overcast
10:55 PM 26.6 °F 15.2 °F 26.6 °F 100% 29.81 in 3.0 mi East 13.8 mph 18.4 mph N/A   Overcast
11:15 PM 26.6 °F 15.2 °F 24.8 °F 93% 29.81 in 2.0 mi East 13.8 mph - N/A   Overcast
11:35 PM 26.6 °F 15.7 °F 24.8 °F 93% 29.80 in 2.5 mi East 12.7 mph - N/A   Overcast
11:55 PM 26.6 °F 16.8 °F 24.8 °F 93% 29.80 in 2.5 mi East 10.4 mph - N/A   Overcast